Location: Island Grove Observatory.
(44.2333°N, 79.4500°W)
Time: 10:36:53
(UTC-05:00)

N. Korean satellite - Visible Passes

Search period start: 28 November 2021 00:00
Search period end: 08 December 2021 00:00
Orbit: 447 x 495 km, 97.3° (Epoch: 27 November)

Date Brightness Start Highest point End Pass type
(mag) Time Alt. Az. Time Alt. Az. Time Alt. Az.
28 Nov 6.4 05:52:12 10° N 05:55:34 58° WNW 05:58:53 10° SSW visible
29 Nov 7.1 05:23:46 10° NNE 05:27:08 55° E 05:30:26 10° S visible
29 Nov 9.5 17:32:54 10° SW 17:35:38 21° W 17:38:22 10° NW visible
30 Nov 8.8 04:55:46 10° NE 04:58:33 23° E 05:01:17 10° SSE visible
30 Nov 7.7 06:29:03 10° NNW 06:31:38 20° WNW 06:34:11 10° WSW visible
01 Dec 10.0 04:29:10 10° ENE 04:29:51 10° E 04:30:32 10° ESE visible
01 Dec 6.6 06:00:03 10° N 06:03:19 45° WNW 06:06:33 10° SSW visible
02 Dec 6.6 05:31:29 10° NNE 05:34:53 72° ESE 05:38:14 10° S visible
02 Dec 9.7 17:41:06 10° SW 17:43:26 17° W 17:45:47 10° NW visible
03 Dec 8.4 05:03:19 10° NE 05:06:19 29° E 05:09:17 10° SSE visible
03 Dec 7.9 06:37:04 10° NNW 06:39:18 17° WNW 06:41:31 10° WSW visible
03 Dec 8.4 17:11:31 10° SSW 17:14:48 36° W 17:18:05 10° NNW visible
04 Dec 9.7 04:35:57 10° ENE 04:37:38 13° E 04:39:18 10° ESE visible
04 Dec 6.9 06:07:51 10° N 06:10:59 35° WNW 06:14:05 10° SW visible
05 Dec 6.3 05:39:09 10° NNE 05:42:33 88° WNW 05:45:56 10° SSW visible
05 Dec 9.8 17:49:24 10° WSW 17:51:11 13° W 17:52:58 10° WNW visible
06 Dec 7.9 05:10:49 10° NNE 05:14:00 36° E 05:17:09 10° SSE visible
06 Dec 8.2 06:45:05 10° NNW 06:46:53 14° WNW 06:48:40 10° W visible
06 Dec 8.9 17:19:25 10° SSW 17:22:30 28° W 17:25:34 10° NW visible
07 Dec 9.4 04:43:07 10° NE 04:45:19 16° E 04:47:31 10° SE visible
07 Dec 7.2 06:15:37 10° N 06:18:34 28° WNW 06:21:31 10° SW visible
